[[{"header":{"parameterUnit":"m.s-1","parameterCategory":1,"la1":30.2991,"la2":30.254,"lo1":-89.0895,"lo2":-89.0444,"dy":0.0017,"dx":0.0017,"nx":28,"ny":28,"refTime":"2025-06-05T21:00:00:Z","depth":0,"parameterNumber":2,"parameterNumberName":"U-component_of_WINDS"},"data":[0,0,0,0,0,0,0,0,0,0,0,0,0,0,0,0,0,0,0,0,0,0,0,0,0,0,0,0,0,0,0,0,0,0,0,0,0,0,0,0,0,0,0,0,0,0,0,0,0,0,0,0,0,0,0,0,0,0,1.8789,1.8791,0,1.8905,1.8906,1.8908,1.8938,1.8938,1.8937,1.8936,1.9057,1.9061,1.9065,0,0,0,0,0,0,0,0,0,0,0,0,0,1.8597,1.8601,1.8789,1.8791,1.8792,1.8905,1.8906,1.8908,1.8939,1.8938,1.8937,1.8936,1.9056,1.906,1.9065,0,0,0,0,0,0,0,0,0,0,0,0,0,1.8694,1.8602,1.8789,1.8821,1.8825,1.8904,1.8906,1.8908,1.8939,1.8938,1.8937,1.8936,1.9054,1.906,1.9066,1.9122,0,0,1.9083,1.9086,0,0,0,0,0,0,0,0,1.8688,1.8701,1.8815,1.8819,1.8824,1.8906,1.8883,1.898,1.8939,1.8896,1.8936,1.8935,1.9008,1.9017,1.9041,1.9128,1.9133,1.9084,1.9087,1.909,1.9092,0,0,0,0,0,0,0,1.8681,1.8696,1.8835,1.8816,1.8822,1.883,1.8843,1.8902,1.8956,1.8899,1.8902,1.8915,1.901,1.9036,1.9045,1.9135,1.9084,1.9089,1.9092,1.9095,1.9274,1.9276,0,0,0,0,0,0,1.8669,1.869,1.8831,1.8839,1.8752,1.8835,1.8849,1.8881,1.8956,1.8966,1.8916,1.8916,1.9026,1.9038,1.9049,1.912,1.909,1.9095,1.9099,1.9273,1.9275,1.9276,0,0,0,0,0,0,1.8665,1.8681,1.8827,1.8765,1.8784,1.8839,1.8875,1.8884,1.8909,1.8968,1.8978,1.8932,1.9026,1.9041,1.9104,1.9125,1.9098,1.9103,1.9272,1.9274,1.9275,1.9263,0,0,0,0,0,0,1.8659,1.868,1.8701,1.8765,1.8787,1.8879,1.8876,1.8887,1.8919,1.892,1.8986,1.8996,1.9026,1.9095,1.911,1.9132,1.9108,1.927,1.9272,1.9275,1.9262,1.9265,1.9267,0,0,0,0,0,1.8652,1.8694,1.8702,1.8719,1.8815,1.888,1.8893,1.8927,1.892,1.8943,1.8981,1.8994,1.912,1.9101,1.9118,1.9143,1.9269,1.9272,1.9275,1.9261,1.9264,1.9267,0,0,0,0,0,0,1.8631,1.8703,1.8713,1.8776,1.8822,1.8885,1.8914,1.8929,1.8978,1.8977,1.9018,1.9032,1.9092,1.9124,1.9102,1.9202,1.9195,1.9201,1.9179,1.9182,1.9184,1.9175,1.9113,0,0,0,0,0,1.8634,1.8679,1.874,1.879,1.8812,1.8859,1.8889,1.8911,1.896,1.898,1.9022,1.907,1.9121,1.9153,1.9203,1.9267,1.9282,1.9292,1.9295,1.9296,1.9301,1.9338,1.9343,1.9286,1.9286,1.9285,0,0,1.864,1.8684,1.8711,1.8787,1.8825,1.8872,1.8875,1.8925,1.8961,1.8988,1.9049,1.9082,1.9139,1.9202,1.9232,1.923,1.932,1.93,1.9301,1.9305,1.9341,1.9346,1.9351,1.9288,1.9287,1.9287,0,0,1.8675,1.8713,1.8759,1.8797,1.8854,1.8885,1.8896,1.8958,1.898,1.9043,1.9064,1.9107,1.9194,1.9233,1.9264,1.9314,1.9328,1.933,1.9342,1.9377,1.9381,1.9385,1.9403,1.9409,1.9334,1.9334,1.9334,0,1.8675,1.8746,1.8781,1.883,1.8863,1.8888,1.8936,1.8971,1.9042,1.9064,1.9061,1.917,1.921,1.9283,1.9295,1.9319,1.9333,1.9322,1.9377,1.9382,1.9387,1.9404,1.9411,1.9334,1.9334,1.9334,1.9334,0,1.8744,1.8793,1.8824,1.8891,1.8927,1.8975,1.9017,1.905,1.9069,1.9101,1.9164,1.9213,1.9273,1.9292,1.9312,1.9368,1.9365,1.9369,1.9363,1.9391,1.9408,1.9415,1.9334,1.9334,1.9334,1.9334,0,0,1.8769,1.8854,1.8865,1.8896,1.8961,1.9,1.9049,1.9107,1.9135,1.9183,1.9225,1.9298,1.9302,1.9337,1.9361,1.9392,1.9429,1.9392,1.9394,1.9397,1.9494,1.949,1.9498,1.9438,1.944,1.9441,1.9489,0,1.8812,1.89,1.8933,1.9005,1.9051,1.9076,1.9119,1.9164,1.9195,1.924,1.9274,1.9325,1.9326,1.9348,1.9379,1.9417,1.9448,1.9414,1.9479,1.948,1.9463,1.9507,1.9503,1.9546,1.9496,1.9497,1.9498,0,1.8874,1.8922,1.8998,1.9058,1.9079,1.9116,1.9172,1.9214,1.9266,1.9287,1.9326,1.9348,1.9401,1.9392,1.9466,1.9442,1.947,1.9493,1.9496,1.9503,1.9491,1.9515,1.9561,1.9567,1.9509,1.9508,1.9508,0,1.8884,1.8968,1.9025,1.905,1.9121,1.9147,1.9178,1.9229,1.9262,1.9311,1.9333,1.9388,1.9418,1.946,1.9497,1.9487,1.9568,1.9561,1.9587,1.9586,1.9602,1.9601,1.9654,1.9621,1.9621,1.9621,1.9621,0,1.8928,1.8974,1.903,1.9065,1.9117,1.9155,1.9206,1.9239,1.9284,1.9326,1.9352,1.9391,1.9437,1.9482,1.9511,1.9568,1.9582,1.96,1.9607,1.9598,1.9595,1.9617,1.9614,1.9623,1.9622,1.9622,1.9621,0,1.8948,1.8987,1.9051,1.9113,1.9129,1.9165,1.9219,1.9254,1.9286,1.9339,1.9354,1.9404,1.9459,1.95,1.9571,1.9591,1.9651,1.9659,1.9633,1.9637,1.966,1.9657,1.9728,1.9739,1.9699,1.9699,1.97,0,1.8974,1.901,1.9075,1.9105,1.9135,1.9183,1.9216,1.9255,1.9289,1.9351,1.9379,1.9435,1.9482,1.9569,1.9612,1.9667,1.9676,1.9697,1.9684,1.9673,1.9676,1.9673,1.9677,1.9699,1.9699,1.9699,1.9699,0,1.9015,1.9033,1.9079,1.9133,1.9172,1.9217,1.9262,1.9285,1.9332,1.9369,1.9425,1.9461,1.9533,1.9589,1.9648,1.9681,1.9698,1.9703,1.9712,1.9702,1.9686,1.9694,1.9638,1.9701,1.9701,1.9701,1.9701,1.9701,1.9038,1.9071,1.9123,1.9174,1.9212,1.9253,1.9289,1.9326,1.9373,1.9434,1.9454,1.9512,1.9564,1.9644,1.9678,1.9724,1.9724,1.9736,1.974,1.9742,1.9741,1.9678,1.9735,1.9735,1.9735,1.9735,1.9735,0,1.9081,1.9115,1.9162,1.9224,1.9264,1.9276,1.9327,1.936,1.941,1.9457,1.9502,1.9567,1.9621,1.9669,1.9725,1.9753,1.9762,1.9766,1.9765,1.9772,1.9738,1.9725,1.9758,1.9758,1.9758,1.9758,1.9758,1.9758,1.9107,1.9164,1.9187,1.9263,1.9297,1.9353,1.9381,1.942,1.9457,1.9527,1.9572,1.9603,1.965,1.971,1.976,1.9773,1.9793,1.9795,1.981,1.9777,1.9774,1.9772,1.9759,1.9799,1.9799,1.984,1.984,1.984]},{"header":{"parameterUnit":"m.s-1","parameterCategory":1,"la1":30.2991,"la2":30.254,"lo1":-89.0895,"lo2":-89.0444,"dy":0.0017,"dx":0.0017,"nx":28,"ny":28,"refTime":"2025-06-05T21:00:00:Z","depth":0,"parameterNumber":3,"parameterNumberName":"V-component_of_WINDS"},"data":[0,0,0,0,0,0,0,0,0,0,0,0,0,0,0,0,0,0,0,0,0,0,0,0,0,0,0,0,0,0,0,0,0,0,0,0,0,0,0,0,0,0,0,0,0,0,0,0,0,0,0,0,0,0,0,0,0,0,1.6305,1.6305,0,1.6277,1.6276,1.6276,1.6283,1.6284,1.6285,1.6285,1.6252,1.6251,1.6249,0,0,0,0,0,0,0,0,0,0,0,0,0,1.6363,1.6362,1.6305,1.6305,1.6304,1.6277,1.6276,1.6276,1.6283,1.6284,1.6285,1.6285,1.6253,1.6251,1.6249,0,0,0,0,0,0,0,0,0,0,0,0,0,1.6336,1.6362,1.6305,1.6305,1.6305,1.6277,1.6276,1.6276,1.6283,1.6284,1.6285,1.6286,1.6253,1.6251,1.6249,1.6218,0,0,1.6242,1.6242,0,0,0,0,0,0,0,0,1.6338,1.6334,1.6305,1.6305,1.6305,1.6285,1.6284,1.6256,1.6283,1.6291,1.6285,1.6286,1.6262,1.6259,1.6252,1.6217,1.6215,1.6242,1.6241,1.624,1.6239,0,0,0,0,0,0,0,1.634,1.6335,1.6294,1.6305,1.6304,1.6305,1.6302,1.6279,1.6272,1.6291,1.6291,1.6288,1.6262,1.6254,1.6251,1.6215,1.6242,1.624,1.6239,1.6238,1.6153,1.6152,0,0,0,0,0,0,1.6342,1.6337,1.6295,1.6293,1.6324,1.6303,1.63,1.629,1.6272,1.627,1.6287,1.6288,1.6257,1.6253,1.625,1.6212,1.624,1.6238,1.6237,1.6154,1.6153,1.6151,0,0,0,0,0,0,1.6344,1.6339,1.6296,1.6315,1.631,1.6302,1.629,1.6289,1.6281,1.627,1.6268,1.628,1.6258,1.6253,1.6226,1.6211,1.6237,1.6235,1.6155,1.6153,1.6152,1.6137,0,0,0,0,0,0,1.6345,1.6339,1.6328,1.6315,1.6309,1.6273,1.6289,1.6288,1.6278,1.6279,1.6263,1.6261,1.6258,1.6229,1.6224,1.6209,1.6233,1.6156,1.6154,1.6152,1.6139,1.6135,1.6132,0,0,0,0,0,1.6347,1.6324,1.6327,1.6322,1.6295,1.6273,1.6269,1.6267,1.6276,1.6265,1.6258,1.6261,1.6214,1.6227,1.6221,1.6204,1.6157,1.6155,1.6153,1.614,1.6136,1.6132,0,0,0,0,0,0,1.6334,1.6322,1.6326,1.6298,1.6286,1.6274,1.6259,1.6262,1.6247,1.6249,1.6246,1.6242,1.6215,1.6207,1.6221,1.6174,1.6187,1.6183,1.6179,1.6175,1.6172,1.6174,1.6232,0,0,0,0,0,1.6328,1.6312,1.6302,1.6279,1.6273,1.6267,1.6257,1.6257,1.6244,1.6239,1.623,1.6217,1.6199,1.6187,1.617,1.6138,1.6134,1.6124,1.6121,1.6118,1.6115,1.6097,1.6092,1.6144,1.6144,1.6144,0,0,1.6315,1.6307,1.6297,1.6276,1.6267,1.6249,1.6263,1.6244,1.623,1.6236,1.621,1.6203,1.6188,1.6159,1.6145,1.6151,1.61,1.6115,1.6113,1.6111,1.6094,1.6089,1.6085,1.6143,1.6143,1.6143,0,0,1.6282,1.6275,1.6254,1.6246,1.6232,1.6229,1.6224,1.6211,1.6207,1.6182,1.6185,1.6169,1.6138,1.6127,1.6118,1.6082,1.6084,1.6076,1.6058,1.6041,1.6037,1.6033,1.6019,1.6014,1.6073,1.6073,1.6073,0,1.6267,1.6242,1.6243,1.6224,1.6214,1.622,1.6198,1.6189,1.617,1.6163,1.6171,1.6133,1.6123,1.6091,1.6082,1.6075,1.6068,1.6077,1.6037,1.6034,1.603,1.6017,1.6012,1.6072,1.6072,1.6072,1.6072,0,1.6224,1.6207,1.6191,1.6175,1.6163,1.6143,1.6139,1.6128,1.6128,1.6124,1.6097,1.6086,1.6067,1.606,1.606,1.6027,1.6032,1.6038,1.6051,1.6024,1.6011,1.6006,1.6071,1.6071,1.6071,1.6072,0,0,1.618,1.6166,1.616,1.6152,1.6138,1.6124,1.6104,1.6086,1.6076,1.6063,1.6045,1.6019,1.6026,1.6015,1.6014,1.5999,1.597,1.6008,1.6007,1.6,1.5932,1.5926,1.592,1.5973,1.5972,1.5971,1.5933,0,1.6146,1.6111,1.6111,1.6078,1.6062,1.6068,1.605,1.6039,1.6034,1.6018,1.6013,1.5995,1.6005,1.5998,1.5984,1.5977,1.5956,1.598,1.5954,1.5953,1.5956,1.5914,1.5907,1.5872,1.5928,1.5928,1.5927,0,1.61,1.6087,1.6053,1.6042,1.6035,1.6019,1.6003,1.5988,1.5976,1.5973,1.5962,1.5963,1.5941,1.5956,1.5925,1.5941,1.5931,1.5926,1.5925,1.5921,1.5937,1.5908,1.5861,1.5855,1.5919,1.592,1.5921,0,1.607,1.6044,1.602,1.6014,1.6001,1.5989,1.5983,1.5972,1.5961,1.5947,1.594,1.5922,1.5913,1.5899,1.5895,1.5907,1.5864,1.5879,1.586,1.586,1.5849,1.585,1.5799,1.5845,1.5845,1.5846,1.5846,0,1.603,1.6008,1.6007,1.5992,1.5968,1.5968,1.5944,1.5939,1.5929,1.5912,1.5917,1.59,1.5898,1.5881,1.5878,1.5852,1.5848,1.5844,1.5844,1.5843,1.5843,1.5835,1.5837,1.5844,1.5844,1.5845,1.5845,0,1.5991,1.599,1.5964,1.5954,1.5952,1.5934,1.5925,1.591,1.5907,1.5886,1.5881,1.5875,1.5855,1.5851,1.5827,1.5825,1.5794,1.5797,1.5799,1.5798,1.5779,1.5781,1.572,1.5712,1.5765,1.5765,1.5764,0,1.5965,1.5949,1.5938,1.5928,1.5922,1.5905,1.5895,1.5895,1.5884,1.5869,1.5855,1.5837,1.5822,1.579,1.5782,1.5764,1.5765,1.5746,1.5762,1.5762,1.5763,1.5764,1.5762,1.5742,1.5741,1.5741,1.574,0,1.5918,1.5919,1.5904,1.5889,1.5877,1.5865,1.5854,1.5845,1.5844,1.5831,1.5811,1.58,1.5777,1.5757,1.574,1.5732,1.5735,1.5736,1.573,1.5728,1.573,1.5727,1.5788,1.5736,1.5737,1.5737,1.5737,1.5737,1.5884,1.587,1.586,1.5844,1.5836,1.5826,1.5811,1.5807,1.5791,1.5773,1.5774,1.5752,1.574,1.5717,1.5708,1.5691,1.5697,1.5689,1.5687,1.5684,1.5682,1.5734,1.5688,1.5688,1.5688,1.5688,1.5688,0,1.5836,1.5831,1.5816,1.5801,1.5788,1.5795,1.5782,1.5771,1.5752,1.5742,1.5727,1.5705,1.5686,1.5678,1.566,1.5647,1.5648,1.5642,1.5642,1.564,1.5678,1.5684,1.5642,1.5642,1.5642,1.5642,1.5642,1.5642,1.581,1.5786,1.5785,1.5757,1.5752,1.5732,1.5724,1.5714,1.5706,1.5681,1.5667,1.5662,1.5652,1.5633,1.5616,1.5614,1.5606,1.5599,1.5598,1.5633,1.5638,1.5642,1.5648,1.5598,1.5598,1.5561,1.5561,1.556]}]]